Retour au catalogue

ONEWEB-0659

ActifCommunicationsPO
NORAD 54678·PAYLOAD·🇬🇧 United Kingdom

Lancé Dec 8, 2022 depuis Cape Canaveral Space Force Station

Loading…

Prochains Passages (prochaines 24 heures)

TLE

FraisSource: CelesTrak SupGP

Époque: Sep 14, 2026, 23:02 UTC

1 54678C 22166AN  26257.96022405 -.00002901  00000+0 -70318-2 0  2578
2 54678  87.9272 226.1157 0002068  83.8164 352.6929 13.21830705    14

Suivez ONEWEB-0659 en temps réel avec AllMySat

Download on the App Store